Location: Newark
(54.6833°N, 25.2833°E)
Time: 19:47:03
(UTC+00:00)

Tiros 1 despin weight - Pass Details

Date: 17 November 2019
Orbit: 594 x 642 km, 48.2° (Epoch: 05 December)

Event Time Altitude Azimuth Distance (km) Brightness Sun altitude
Rises 15:26:10 0° 260° (W) 2,842 ? -10.2°
Reaches altitude 10° 15:28:35 10° 251° (WSW) 1,945 ? -10.5°
Maximum altitude 15:32:39 35° 186° (S) 979 ? -11.1°
Drops below altitude 10° 15:36:45 10° 120° (ESE) 1,969 ? -11.6°
Enters shadow 15:37:17 - 118° (ESE) 2,160 ? -11.7°
Sets 15:39:13 0° 112° (ESE) 2,882 - -12.0°
